Showing default

NOAA 4, 7529

Orbit data source: Space-Track

NOAA 4, 7529 is a payload satellite owned by NOAA (US) in SSO that was launched on Fri, 15 Nov 1974 UTC via a DELTA 2310 launch vehicle from the Air Force Western Test Range (AFWTR). Payload-class satellites include a variety of spacecraft equipped with specific instruments for various scientific and technological missions. These include communications satellites like Starlink; space stations such as the ISS; scientific satellites like the Hubble; Earth observation satellites from companies like Planet Labs, Umbra, and HawkEye 360; GPS; miniature CubeSats for education and research; and military/defense satellites.

Loading next visibility...
Identifier
7529, 1974-089A
Orbit
SSO
Country
Flag of USUS
Related business
Manufacturer
RCA/East Windsor
Mission
Non-operational Civil Weather
Bus & Motor
TIROS M, Unknown motor
Mass
345 kg wet, 345 kg dry
Launch date (UTC)
1974-11-15 (51 years ago)
Launch vehicle
DELTA 2310
Launch site
Air Force Western Test Range (AFWTR)
Object type
Payload
Rocket body
Debris
Shape & HBR
Hex Poly + 3 Pan, 0.6 m
Radar Cross Section
1.292 m², Large (>1 m²)

Expand to show TLE details & history
Last TLE update: 15 hours ago

TLE from 15 hours ago
0 NOAA 4
1 07529U 74089A   25261.03244020 -.00000023  00000-0  14814-3 0  9999
2 07529 102.0087 265.9334 0009095 358.1984   7.4416 12.53196468325430
Epoch: 2025-09-18T00:46Z
TLE epoch observation values (Epoch: 2025-09-18T00:46:42.833Z)
Latitude
5.45549°
Longitude
-104.10327°
Altitude
1,446.118 km
Speed
7.142 km/s
True Right ascension
17h 39m 06s
True Declination
5° 25' 33"
Sunlit
Object was in daylight at epoch
Visualization orbit readout
Latitude
Unknown
Longitude
Unknown
Altitude
Unknown
Speed
Unknown
Apparent Right ascension
Unknown
Apparent Declination
Unknown
Sunlit
N/A
Visualization observer readout
Local Sidereal Time
09:05:58
Azimuth
Unknown
Elevation
Unknown
Doppler factor
Unknown
Orbital elements
Apogee altitude
1,455.83 km
Perigee altitude
1,441.593 km
Semi-major axis
7,826.848 km
Eccentricity
0.00091
Inclination
102.0087°
RAAN
265.9334°
Arg. of periapsis
358.1984°
True anomaly
7.45511°
Mean anomaly
7.4416°
Eccentric anomaly
7.44836°
Mean motion
3.13446 °/min
Orbital period
114.85 mins
BSTAR
0.00014814
Loading maneuver chart data...
Computing Atmospheric mass density...
Loading historical data...
Loading historical data...
Loading historical data...
Loading historical data...
Loading historical data...
Loading historical data...
Loading historical data...

Documentation

Showing up to 5 results
|